Regional Weather Roundup
Issued by NWS

Home | Current Version | Previous Version | Graphics & Text | Print | Product List | Glossary On
Versions: 1 2 3 4 5 6 7 8 9 10 11 12 13 14 15 16 17 18 19 20 21 22 23 24 25 26 27 28 29 30 31 32 33 34 35 36 37 38 39 40 41 42 43 44 45 46 47 48 49 50
000
ASUS43 KMPX 180110
RWRMN
WEATHER ROUNDUP FOR MINNESOTA
NATIONAL WEATHER SERVICE TWIN CITIES/CHANHASSEN MN
700 PM CST WED DEC 17 2014


NOTE: "FAIR" INDICATES FEW OR NO CLOUDS BELOW 12,000 FEET WITH NO
SIGNIFICANT WEATHER AND/OR OBSTRUCTIONS TO VISIBILITY. N/A MEANS
CURRENT SKY AND/OR WEATHER CONDITIONS ARE NOT AVAILABLE.

MNZ060>063-068>070-180200-
   Twin Cities Metro

CITY           SKY/WX    TMP DP  RH WIND       PRES   REMARKS
TWIN CITIES    PTCLDY    16   8  71 NE5       30.32S WCI   9
ST PAUL        PTCLDY    17   9  70 CALM      30.34S
CRYSTAL        PTCLDY    14   9  80 CALM      30.30F
LAKEVILLE      CLOUDY    16  10  79 E6        30.31R WCI   7
EDEN PRAIRIE   CLOUDY    18   9  68 CALM      30.30S
SOUTH ST PAUL  PTCLDY    17  10  74 CALM      30.32S
LAKE ELMO      FAIR      12  10  92 CALM      30.31F
$$
MNZ001>005-007-008-013>017-022>024-027-028-180200-
   Northwest Minnesota

CITY           SKY/WX    TMP DP  RH WIND       PRES   REMARKS
BEMIDJI        PTCLDY    11   8  87 CALM      30.26S
HALLOCK        PTCLDY    10   9  92 CALM      30.31S
ROSEAU         PTCLDY    10   5  79 CALM      30.31S
WARROAD        MOCLDY     9   5  85 CALM      30.31S
THIEF RVR FALL PTCLDY    12  10  92 CALM      30.29F
CROOKSTON      PTCLDY    12  10  92 CALM      30.32S
FOSSTON        PTCLDY     7   3  85 CALM      30.29S
DETROIT LAKES  PTCLDY    12  10  92 CALM      30.28R
MOORHEAD       PTCLDY    12  12 100 CALM      30.31F
PARK RAPIDS    PTCLDY    12   8  84 CALM      30.25S
MAHNOMEN       FAIR      10   8  89 N5        30.28F WCI   2
$$
MNZ006-009>011-018-025>026-180200-
   North Central Minnesota

CITY           SKY/WX    TMP DP  RH WIND       PRES   REMARKS
BAUDETTE       MOCLDY    11   7  84 CALM      30.29S
FLAG ISLAND    MOCLDY    12   7  79 CALM      30.31S
INTL FALLS     PTCLDY    12   2  64 E6        30.31F WCI   3
WASKISH        PTCLDY     9   7  92 CALM      30.28F
BIG FORK       PTCLDY    14   9  79 NE3       30.28F
LONGVILLE      FAIR       9   7  92 CALM      30.27S
GRAND RAPIDS   PTCLDY    16   9  73 CALM      30.25F
CRANE LAKE     PTCLDY     3   1  92 CALM      30.34F
ORR            PTCLDY     9   5  85 CALM      30.28S
COOK           PTCLDY     7   3  85 CALM      30.30S
WALKER         FAIR      12   9  87 CALM      30.26S
$$
MNZ012-019>021-037-180200-
   Northeast Minnesota

CITY           SKY/WX    TMP DP  RH WIND       PRES   REMARKS
DULUTH         PTCLDY    18  12  77 N6        30.25F WCI  10
ELY            MOCLDY     9   7  92 NE3       30.29S
HIBBING        CLEAR      8   4  83 NE3       30.27F
EVELETH        CLEAR     12  10  92 CALM      30.29F
DULUTH HARBOR  CLOUDY    25  18  74 N8        30.32F WCI  16
TWO HARBORS    CLOUDY    21  16  79 N6        30.27F WCI  14
SILVER BAY     MOCLDY    18  10  73 N5        30.28S WCI  11
GRAND MARAIS     N/A     17   7  64 CALM      30.34R
G MARAIS ARPRT PTCLDY     7   1  78 NW6       30.25S WCI  -3
$$
MNZ029>031-032-039>041-046>048-054>057-064-180200-
   West Central Minnesota

CITY           SKY/WX    TMP DP  RH WIND       PRES   REMARKS
FERGUS FALLS   PTCLDY    10   7  85 CALM      30.32F
WHEATON        PTCLDY     7   3  85 CALM      30.33R
MORRIS         PTCLDY    10   7  85 NW3       30.29S
ALEXANDRIA     PTCLDY    13   9  84 SE3       30.27S
ELBOW LAKE     FAIR      10   8  91 CALM      30.28S
WADENA         PTCLDY    10   9  92 CALM      30.26S
GLENWOOD       PTCLDY    10   9  92 E7        30.28S WCI   0
APPLETON       PTCLDY    10   7  85 CALM      30.31R
BENSON         PTCLDY    10   7  85 CALM      30.30R
ORTONVILLE     PTCLDY    10   7  85 NW3       30.30R
MADISON        PTCLDY    12  10  92 CALM      30.31S
WILLMAR        CLOUDY    16  10  79 CALM      30.31S
$$
MNZ033>034-036-042>043-049>051-058-059-180200-
   Central Minnesota

CITY           SKY/WX    TMP DP  RH WIND       PRES   REMARKS
ST CLOUD       PTCLDY    13   8  81 CALM      30.30S
SAUK CENTRE    FAIR      11   8  88 SE3       30.29S
PAYNESVILLE    PTCLDY    10   8  92 CALM      30.30S
AITKIN         PTCLDY    10   3  72 CALM      30.26S
PINE RIVER     PTCLDY    10   7  85 CALM      30.30R
BRAINERD       PTCLDY     9   6  88 CALM      30.28R
STAPLES        PTCLDY    10   9  92 CALM      30.27S
LONG PRAIRIE   FAIR      10   9  92 CALM      30.28S
LITTLE FALLS   PTCLDY    10   7  85 CALM      30.30S
LITCHFIELD     PTCLDY    16  12  86 NE3       30.30S
BUFFALO        PTCLDY    14  10  81 CALM      30.32R
MAPLE LAKE     PTCLDY    13  11  92 CALM      30.31S
$$
MNZ037-044-045-052-053-180200-
   East Central Minnesota

CITY           SKY/WX    TMP DP  RH WIND       PRES   REMARKS
PRINCETON      CLEAR     12  10  92 CALM      30.30S
MORA           CLOUDY    16  10  79 CALM      30.32S
CAMBRIDGE      PTCLDY    10   5  79 CALM      30.29F
RUSH CITY      PTCLDY    11   9  89 CALM      30.31F
MOOSE LAKE     PTCLDY    12  10  92 CALM      30.27F
HINCKLEY       FAIR      14  12  92 CALM      30.30S
CLOQUET        FAIR      14  12  92 CALM      30.27S
MCGREGOR       MOCLDY    12  10  92 CALM      30.28F
$$
MNZ071>073-080-081-089-090-097-098-180200-
   Southwest Minnesota

CITY           SKY/WX    TMP DP  RH WIND       PRES   REMARKS
MONTEVIDEO     PTCLDY    10  10 100 CALM      30.32S
GRANITE FALLS  PTCLDY    10   7  91 NW3       30.32S
CANBY          PTCLDY     8   6  91 SW5       30.31R WCI  -1
MARSHALL       PTCLDY     9   5  85 W3        30.30R
REDWOOD FALLS  MOCLDY    12   9  87 NW7       30.31R WCI   1
OLIVIA         MOCLDY    16  12  86 W5        30.30R WCI   9
PIPESTONE      PTCLDY    10   9  92 SE1       30.27R
WINDOM           N/A     10   9  92 CALM      30.29R
WORTHINGTON    PTCLDY    14  10  85 CALM      30.28S
JACKSON        PTCLDY    14  10  85 CALM      30.29R
TRACY          PTCLDY    10   7  89 SW3       30.30R
SLAYTON        PTCLDY    10   9  95 CALM      30.29R
$$
MNZ065>067-074>077-082>085-091>093-180200-
   South Central Minnesota

CITY           SKY/WX    TMP DP  RH WIND       PRES   REMARKS
MANKATO        CLOUDY    18  10  73 CALM      30.30S
NEW ULM        MOCLDY    14  12  92 CALM      30.31R
ST JAMES       MOCLDY    14  10  85 CALM      30.32R
FAIRMONT       PTCLDY    16  10  79 NW3       30.30R
GLENCOE        PTCLDY    16  13  87 CALM      30.30S
FARIBAULT      CLOUDY    18  12  79 CALM      30.30S
OWATONNA       PTCLDY    16  10  79 CALM      30.29S
WASECA         PTCLDY    18  14  86 CALM      30.31R
ALBERT LEA     PTCLDY    16  14  93 CALM      30.28S
$$
MNZ078>079-086>088-094>096-180200-
   Southeast Minnesota

CITY           SKY/WX    TMP DP  RH WIND       PRES   REMARKS
ROCHESTER      CLOUDY    17  11  77 N6        30.28S WCI   9
RED WING       PTCLDY    18  10  73 CALM      30.31F
STANTON        FLURRIES  17  12  80 NE5       30.30S WCI  10
DODGE CENTER   PTCLDY    16  12  86 NE3       30.27S
WINONA         CLOUDY    21  14  73 CALM      30.33R
AUSTIN         CLOUDY    18  14  86 NE3       30.28R
PRESTON        CLOUDY    16  12  84 N7        30.28S WCI   6
$$
ABBREVIATIONS USED IN REMARKS
   TC - TEMPERATURES IN CELSIUS
  WCI - WIND CHILL INDEX
   HX - HEAT INDEX
  VSB - VISIBILITY
$$



USA.gov is the U.S. government's official web portal to all federal, state and local government web resources and services.